North Myrtle Beach, SC

1:14 AM EST on December 10, 2019 (GMT -0500)
Grand Strand

Weather History for KCRE - October, 2019

Change the Weather History Date:

Wednesday, October 16, 2019

  Actual Average Record
Temperature  
Mean Temperature 72 °F 65 °F  
Max Temperature 81 °F 75 °F 88 °F (1990)
Min Temperature 62 °F 56 °F 38 °F (1945)
Degree Days  
Heating Degree Days 0 2  
Month to date heating degree days 0 22  
Since 1 July heating degree days 0 26  
Cooling Degree Days 7 3  
Month to date cooling degree days 134 69  
Year to date cooling degree days 2317 1853  
Growing Degree Days 24 (Base 50)    
Moisture  
Dew Point 67 °F    
Average Humidity 78    
Maximum Humidity 93    
Minimum Humidity 62    
Precipitation  
Precipitation 0.35 in 0.14 in 1.20 in (1932)
Month to date precipitation 1.21 2.24  
Year to date precipitation 43.78 43.87  
Sea Level Pressure  
Sea Level Pressure 29.76 in    
Wind  
Wind Speed 10 mph (SSW)    
Max Wind Speed 28 mph    
Max Gust Speed 34 mph    
Visibility 9 miles    
Events Rain    
T = Trace of Precipitation, MM = Missing Value Source: NWS Daily Summary

Daily Weather History Graph

Daily Weather History Graph

Search for Another Location

Airport or City:

Astronomy

Oct. 16, 2019 Rise Set
Actual Time 7:20 AM EDT 6:39 PM EDT
Civil Twilight 6:55 AM EDT 7:05 PM EDT
Nautical Twilight 6:26 AM EDT 7:34 PM EDT
Astronomical Twilight 5:57 AM EDT 8:02 PM EDT
Moon 8:38 PM EDT (10/16) 9:43 AM EDT (10/16)
Length of Visible Light 12h 09m
Length of Day
11h 19m
Waning Gibbous, 93% of the Moon is Illuminated
Oct 16
Waning Gibbous
Oct 21
Last Quarter
Oct 27
New
Nov 4
First Quarter
Nov 12
Full

Hourly Weather History & Observations

Time (EDT) Temp. Heat Index Dew Point Humidity Pressure Visibility Wind Dir Wind Speed Gust Speed Precip Events Conditions
12:53 AM 69.1 °F - 64.0 °F 84% 29.97 in 10.0 mi Calm Calm - N/A   Scattered Clouds
1:53 AM 69.1 °F - 66.0 °F 90% 29.95 in 10.0 mi North 3.5 mph - 0.00 in   Partly Cloudy
2:53 AM 72.0 °F - 64.9 °F 78% 29.93 in 10.0 mi SSE 6.9 mph - 0.02 in Rain Light Rain
3:53 AM 70.0 °F - 66.0 °F 87% 29.89 in 10.0 mi SE 5.8 mph - 0.05 in Rain Light Rain
4:19 AM 71.1 °F - 66.9 °F 87% 29.89 in 10.0 mi SSE 9.2 mph - 0.01 in Rain Light Rain
4:35 AM 71.1 °F - 66.0 °F 84% 29.89 in 10.0 mi SSE 6.9 mph - 0.01 in Rain Light Rain
4:53 AM 71.1 °F - 64.9 °F 81% 29.88 in 10.0 mi SSE 6.9 mph - 0.02 in Rain Light Rain
5:07 AM 70.0 °F - 66.0 °F 87% 29.88 in 10.0 mi SSE 8.1 mph - 0.00 in Rain Light Rain
5:43 AM 70.0 °F - 66.0 °F 87% 29.86 in 10.0 mi SSE 9.2 mph - 0.03 in Rain Rain
5:53 AM 70.0 °F - 66.9 °F 90% 29.86 in 10.0 mi SSE 8.1 mph - 0.04 in Rain Light Rain
6:01 AM 71.1 °F - 66.9 °F 87% 29.85 in 10.0 mi SE 6.9 mph - 0.01 in Rain Light Rain
6:53 AM 72.0 °F - 69.1 °F 91% 29.83 in 10.0 mi SSE 11.5 mph 20.7 mph 0.07 in Rain Rain
7:18 AM - - - N/A% 29.81 in 10.0 mi SSE 11.5 mph 19.6 mph 0.03 in Rain Light Rain
7:53 AM - - - N/A% 29.80 in 10.0 mi South 16.1 mph 23.0 mph 0.04 in Rain Light Rain
8:29 AM 72.0 °F - 69.1 °F 91% 29.76 in 6.0 mi South 13.8 mph 23.0 mph 0.02 in Rain Light Rain
8:53 AM 72.0 °F - 69.1 °F 91% 29.76 in 6.0 mi South 17.3 mph 25.3 mph 0.04 in Rain Light Rain
9:25 AM 72.0 °F - 69.1 °F 91% 29.75 in 10.0 mi South 19.6 mph - 0.01 in Rain Light Rain
9:35 AM 72.0 °F - 70.0 °F 93% 29.74 in 10.0 mi South 12.7 mph - 0.01 in Rain Light Rain
9:45 AM 72.0 °F - 70.0 °F 93% 29.74 in 10.0 mi South 11.5 mph 21.9 mph 0.02 in Rain Light Rain
9:50 AM 71.6 °F - 69.8 °F 94% 29.74 in 1.0 mi South 13.8 mph 23.0 mph 0.04 in Rain Rain
9:53 AM 72.0 °F - 70.0 °F 93% 29.74 in 1.0 mi South 11.5 mph 23.0 mph 0.05 in Rain Heavy Rain
9:58 AM 72.0 °F - 70.0 °F 93% 29.74 in 9.0 mi South 16.1 mph 20.7 mph 0.00 in Rain Light Rain
10:13 AM 73.0 °F - 70.0 °F 90% 29.72 in 10.0 mi South 12.7 mph 19.6 mph 0.02 in Rain Light Rain
10:25 AM 73.9 °F - 71.1 °F 91% 29.72 in 10.0 mi SSW 16.1 mph 23.0 mph 0.02 in Rain Light Rain
10:37 AM 75.0 °F - 71.1 °F 87% 29.71 in 10.0 mi SSW 25.3 mph 33.4 mph 0.02 in   Overcast
10:44 AM 75.0 °F - 71.1 °F 87% 29.71 in 10.0 mi SW 23.0 mph 33.4 mph 0.02 in   Overcast
10:53 AM 75.0 °F - 72.0 °F 90% 29.71 in 10.0 mi SW 25.3 mph 29.9 mph 0.02 in   Overcast
11:03 AM 75.9 °F - 71.1 °F 85% 29.70 in 10.0 mi SW 18.4 mph 26.5 mph N/A   Overcast
11:31 AM 75.0 °F - 70.0 °F 84% 29.70 in 10.0 mi WSW 12.7 mph 21.9 mph N/A   Overcast
11:50 AM 75.2 °F - 69.8 °F 83% 29.68 in 10.0 mi WSW 15.0 mph 23.0 mph N/A   Overcast
11:53 AM 75.0 °F - 70.0 °F 84% 29.69 in 10.0 mi WSW 10.4 mph 23.0 mph N/A   Overcast
12:23 PM 77.0 °F - 70.0 °F 79% 29.66 in 10.0 mi WSW 16.1 mph 23.0 mph N/A   Overcast
12:53 PM 75.9 °F - 69.1 °F 79% 29.66 in 10.0 mi WSW 16.1 mph 25.3 mph N/A   Overcast
1:53 PM 77.0 °F - 69.1 °F 76% 29.64 in 10.0 mi WSW 16.1 mph - N/A   Overcast
2:53 PM 75.9 °F - 69.1 °F 79% 29.64 in 10.0 mi West 13.8 mph 20.7 mph N/A   Overcast
3:53 PM 80.1 °F 82.7 °F 68.0 °F 67% 29.62 in 10.0 mi West 9.2 mph 19.6 mph N/A   Partly Cloudy
4:53 PM 80.1 °F 82.3 °F 66.9 °F 64% 29.62 in 10.0 mi West 10.4 mph 18.4 mph N/A   Partly Cloudy
5:53 PM 78.1 °F - 64.0 °F 62% 29.64 in 10.0 mi WNW 9.2 mph 16.1 mph N/A   Clear
6:53 PM 73.9 °F - 61.0 °F 64% 29.68 in 10.0 mi Variable 5.8 mph 17.3 mph N/A   Clear
7:53 PM 72.0 °F - 61.0 °F 68% 29.69 in 10.0 mi NW 4.6 mph - N/A   Clear
8:53 PM 69.1 °F - 61.0 °F 75% 29.71 in 10.0 mi Calm Calm - N/A   Clear
9:53 PM 68.0 °F - 62.1 °F 81% 29.74 in 10.0 mi West 3.5 mph - N/A   Mostly Cloudy
10:53 PM 68.0 °F - 59.0 °F 73% 29.78 in 10.0 mi Variable 5.8 mph - N/A   Clear
11:53 PM 64.9 °F - 55.0 °F 70% 29.81 in 10.0 mi North 9.2 mph - N/A   Clear